Regional Weather Roundup
Issued by NWS Cleveland, OH

Home | Current Version | Previous Version | Text Only | Print | Product List | Glossary Off
Versions: 1 2 3 4 5 6 7 8 9 10 11 12 13 14 15 16 17 18 19 20 21 22 23 24 25 26 27 28 29 30 31 32 33 34 35 36 37 38 39 40 41 42 43 44 45 46 47 48 49 50

000
ASUS41 KCLE 222010
RWRCLE
OHIO REGIONAL WEATHER ROUNDUP
NATIONAL WEATHER SERVICE CLEVELAND, OH
400 PM EDT SUN APR 22 2018

NOTE: "FAIR" INDICATES FEW OR NO CLOUDS BELOW 12,000 FEET WITH NO
SIGNIFICANT WEATHER AND/OR OBSTRUCTIONS TO VISIBILITY.

OHZ001>008-015>018-024>027-034-035-043-044-222100-
   NORTHWEST OHIO

CITY           SKY/WX    TMP DP  RH WIND       PRES   REMARKS
DEFIANCE       NOT AVBL
FINDLAY        FAIR      63  26  24 E15G21    30.29F
TOLEDO EXPRESS FAIR      60  19  20 E21       30.33F
TOLEDO EXEC    FAIR      57  23  26 E21G28    30.35F
LIMA           FAIR      63  32  31 NE10G23   30.27F
$$

OHZ009>014-019>023-028>033-038-089-222100-
   NORTHEAST OHIO

CITY           SKY/WX    TMP DP  RH WIND       PRES   REMARKS
CLE-HOPKINS    PTSUNNY   57  26  30 N23       30.35F
CLE-LAKEFRONT  FAIR      48  37  65 NE18      30.32F
CUY CO. ARPT   MOSUNNY   61  30  31 NE14G23   30.33F
LORAIN-ELYRIA  FAIR      55  24  30 NE20      30.33F
ASHTABULA      FAIR      59  24  26 NE13G20   30.34F
AKRON-CANTON   FAIR      66  25  21 E9G20     30.28F
WOOSTER        FAIR      65  23  20 E7        30.28F
MANSFIELD      FAIR      63  22  20 E13       30.28F
YOUNGSTOWN     FAIR      65  17  15 NE3       30.29F
$$

OHZ042-051>053-060>062-070>072-077>081-222100-
  SOUTHWEST OHIO

CITY           SKY/WX    TMP DP  RH WIND       PRES   REMARKS
CINC-COVINGTON CLOUDY    64  29  26 E15       30.21F
CINC-LUNKEN    FAIR      65  37  35 NE10      30.22F
HAMILTON       FAIR      64  34  32 E7        30.23F
DAYTON         PTSUNNY   66  28  24 E12       30.24F
WRIGHT-PAT AFB FAIR      67  28  23 E13       30.23F
DAYTON GENERAL FAIR      66  26  22 E13       30.22F
WILMINGTON     FAIR      63  30  28 NE9       30.23F
$$

OHZ036-037-039>041-045>050-054>059-063>069-073>076-082>088-222100-
  CENTRAL AND SOUTHEAST OHIO

CITY           SKY/WX    TMP DP  RH WIND       PRES   REMARKS
COLUMBUS       CLOUDY    66  26  22 NE10      30.24F
OSU AIRPORT    FAIR      64  26  23 NE12      30.24F
BOLTON FIELD   SUNNY     64  28  25 E8        30.25F
RICKENBACK AFB FAIR      64  28  25 NE12      30.23F
NEWARK         FAIR      66  29  24 NE8       30.24F
MARION         FAIR      64  23  21 E9        30.27F
LANCASTER      FAIR      65  29  25 NE10      30.24F
ZANESVILLE     FAIR      67  26  21 VRB5      30.24F
NEW PHILLY     FAIR      68  26  20 CALM      30.26F
$$




USA.gov is the U.S. government's official web portal to all federal, state and local government web resources and services.